Overview Statistics Trail Chart Weather Telemetry Raw packets
 

This is the latest recevied weather packets stored in our database for station/object SR9NLI. If no packets are shown the sender has not sent any weather packets the latest 10 day(s).

<< 19 20 21 22 23 24 25 >>
Time Temp. Humidity Pressure Rain* Wind** Luminosity Snow
1777850339 12.78° C 100% 958.1 hPa - - - -
1777850277 12.78° C 100% 958.1 hPa - - - -
1777850154 13.33° C 100% 958.1 hPa - - - -
1777850032 12.22° C 100% 958.2 hPa - - - -
1777849971 12.22° C 100% 958.2 hPa - - - -
1777849909 12.22° C 100% 958.1 hPa - - - -
1777849786 12.22° C 100% 958.1 hPa - - - -
1777849662 11.67° C 100% 958.2 hPa - - - -
1777849602 11.67° C 100% 958.1 hPa - - - -
1777849539 12.22° C 100% 958.2 hPa - - - -
1777849416 12.22° C 100% 958.1 hPa - - - -
1777849293 12.78° C 100% 958.1 hPa - - - -
1777849233 12.78° C 100% 958.1 hPa - - - -
1777849171 12.78° C 100% 958.3 hPa - - - -
1777849049 12.78° C 100% 958.1 hPa - - - -
1777848940 13.33° C 100% 958.2 hPa - - - -
1777848865 13.33° C 100% 958.2 hPa - - - -
1777848802 13.89° C 100% 958.2 hPa - - - -
1777848679 13.89° C 100% 958.2 hPa - - - -
1777848557 13.89° C 100% 958.2 hPa - - - -
1777848496 13.89° C 100% 958.2 hPa - - - -
1777848434 13.89° C 100% 958.2 hPa - - - -
1777848310 13.33° C 100% 958.3 hPa - - - -
1777848188 13.33° C 100% 958.3 hPa - - - -
1777848127 12.78° C 100% 958.3 hPa - - - -

* Rain since midnight (hover to see other rain measurements)
** Current wind speed in m/s (hover to see current wind gust speed)